Wind_Speed
4 6 3 4 4 3 6 7 5 5 10 10 8 10 11 1 9 10 9 8 8 8 10 19 17 18 13 9 5 5 6 8 11 14 12 14 13 15 16 18 15 20 16 13
7 4 3 5 9 7 7 6 6 4 11 8 10 15 8 7 6 8 9 8 9 8 8 11 11 9 8 7 4 6 11 14 16 19 20 20 19 21 23 23 20 22 18 17
3 2 5 6 6 8 5 5 6 7 10 11 4 9 7 4 8 8 7 6 6 8 6 5 6 6 9 9 11 13 15 16 19 24 25 22 23 25 20 14 21 24 23 23
2 2 6 7 3 6 5 7 9 11 7 3 4 4 5 6 7 7 7 7 8 6 6 5 5 7 9 14 16 15 15 16 17 19 28 28 28 25 31 30 24 21 26 27
4 2 4 5 4 4 7 5 12 14 9 2 7 2 5 6 4 6 7 7 7 7 6 6 2 1 4 5 11 18 19 19 18 20 23 29 32 33 25 22 24 15 14 24
5 4 4 1 7 5 7 7 11 5 3 3 6 5 5 3 4 5 6 6 7 7 5 6 7 7 5 4 7 11 16 19 22 24 26 30 31 36 32 22 18 12 11 12
7 4 3 2 5 7 12 6 4 6 4 4 12 6 8 9 6 9 8 6 6 5 4 2 3 4 6 11 13 15 15 18 24 28 31 34 37 38 38 35 25 19 17 14
4 6 6 7 3 4 5 3 4 2 1 5 9 3 5 9 11 6 5 5 7 8 4 3 2 4 12 14 18 20 24 26 26 27 18 18 28 39 40 37 22 20 19 13
6 4 8 3 1 3 6 4 2 2 2 3 4 7 9 7 11 8 12 6 7 5 2 3 5 11 12 16 16 19 23 28 28 19 17 18 16 15 14 13 18 16 14 14
4 5 5 6 3 4 4 0 5 3 2 3 4 6 6 10 14 10 3 6 6 2 6 6 8 7 13 16 17 21 27 29 25 10 9 3 6 11 14 14 17 15 11 6
6 3 8 6 1 4 2 4 2 2 1 3 3 5 5 13 9 12 16 10 9 6 7 7 7 10 13 16 20 25 32 29 23 9 5 3 6 8 10 12 10 5 2 3
3 2 3 9 15 9 6 7 6 3 5 4 3 8 13 9 9 22 10 7 6 6 5 8 14 17 19 19 25 27 31 23 20 9 6 7 10 11 12 13 10 8 6 5
2 3 3 8 6 7 6 15 12 6 0 7 4 9 8 15 15 6 8 7 7 9 10 8 10 15 18 19 24 24 28 24 23 9 8 10 11 11 13 5 2 4 5 10
6 2 5 5 6 5 10 19 21 11 2 8 9 17 14 12 7 8 7 7 7 6 6 7 10 15 15 19 24 23 18 24 27 12 12 12 12 11 7 6 3 6 9 14
6 5 6 8 7 10 14 19 20 15 17 12 23 18 12 8 6 5 8 11 9 6 6 9 12 10 17 22 23 12 19 24 23 13 10 11 9 4 3 3 1 9 14 18
2 6 2 6 11 10 8 20 21 19 14 10 14 19 8 6 11 13 12 13 9 8 9 13 12 16 18 21 9 15 17 20 11 5 8 7 7 3 4 5 12 16 15 17
5 3 2 15 4 5 7 13 4 6 14 13 8 4 15 18 18 13 12 5 6 11 13 12 11 15 18 10 10 17 19 17 8 1 2 8 9 4 10 15 9 13 15 17
4 3 2 4 3 4 8 14 21 16 9 7 8 14 15 13 14 15 11 4 12 16 11 7 14 17 9 12 18 21 19 7 5 8 8 1 6 10 3 7 11 14 13 18
5 5 1 2 3 8 9 9 3 11 17 4 8 19 16 14 15 9 2 5 12 12 8 16 16 9 13 21 19 16 13 10 8 8 5 7 7 7 9 11 10 14 19 22
7 6 3 1 4 7 8 3 6 7 11 5 14 8 15 9 10 10 5 11 13 14 17 10 7 11 15 14 10 12 15 3 13 13 14 12 12 12 10 11 14 17 16 20
3 3 2 2 5 7 7 5 1 4 9 6 3 8 11 8 6 11 13 9 12 7 11 12 14 11 7 8 11 10 15 17 13 11 10 10 10 11 12 15 14 18 18 21
4 2 4 3 4 8 2 3 3 6 4 7 4 3 13 13 7 11 10 9 6 8 12 15 13 9 8 8 8 16 15 9 10 10 9 9 12 14 14 13 17 18 18 13
3 7 4 8 6 5 10 12 10 15 18 8 5 7 7 14 11 8 6 6 6 9 11 10 8 10 8 4 6 9 5 7 11 12 12 14 15 14 11 14 18 17 13 15
3 5 8 7 9 16 14 20 19 14 7 8 5 8 10 11 9 7 6 6 6 11 12 8 5 5 5 3 4 5 4 10 12 13 14 14 11 14 15 15 15 11 16 18
5 4 8 13 19 19 16 11 11 11 5 5 6 8 9 4 5 4 5 5 8 10 10 9 7 9 2 6 4 5 7 10 12 13 12 12 14 14 16 14 14 16 19 17
7 15 7 16 19 14 20 9 6 5 6 10 9 6 6 6 2 5 7 9 10 12 10 10 9 7 6 4 3 4 8 11 12 12 13 12 13 14 15 15 17 17 16 16
Wind_Direction
277 58 84 356 293 258 347 315 319 320 344 357 306 279 274 317 69 76 88 88 76 67 50 63 111 132 134 135 157 215 231 251 247 242 243 247 250 254 248 243 245 219 213 222
9 94 22 316 313 42 358 327 345 324 335 323 304 299 231 127 112 112 106 91 87 64 50 78 109 133 153 160 194 249 258 249 252 250 244 244 250 251 249 248 242 216 210 216
2 64 8 342 10 32 351 33 347 314 318 306 13 328 107 76 103 101 115 131 126 133 129 108 108 139 174 194 221 232 246 253 252 250 249 241 245 248 245 257 238 222 216 226
241 98 34 339 84 31 332 347 329 305 333 297 74 277 260 145 157 150 163 145 139 130 111 87 155 184 193 224 228 235 249 255 264 265 239 238 243 244 244 251 254 245 232 233
278 54 13 25 349 340 248 302 283 279 255 292 315 82 293 136 179 186 167 134 126 107 100 81 54 126 235 236 231 233 243 253 269 268 266 248 242 251 251 246 250 262 252 238
242 139 81 8 307 300 307 340 309 326 128 53 338 47 296 323 157 135 94 117 113 109 87 66 57 63 53 48 240 244 254 271 282 276 261 256 249 245 241 230 224 213 170 158
326 115 113 27 346 351 8 14 355 10 12 219 7 346 243 317 111 114 109 120 131 109 114 108 19 341 28 37 19 356 336 313 309 293 278 265 256 252 241 233 216 187 179 166
358 340 19 352 78 334 310 53 118 301 320 287 314 258 290 24 79 94 152 87 77 36 3 347 185 101 74 38 11 358 356 339 326 315 312 303 287 271 251 234 204 178 155 133
4 303 341 85 38 94 321 36 227 135 10 58 270 307 338 100 17 7 79 88 71 2 41 300 102 99 57 31 25 6 352 340 321 306 301 307 310 282 229 163 139 122 111 109
323 312 317 337 312 256 173 298 24 2 344 288 286 304 229 338 340 343 311 208 146 360 18 44 55 53 28 32 8 349 340 332 318 289 298 307 105 114 112 116 117 112 99 71
37 58 301 351 91 341 38 348 17 12 293 218 289 266 305 317 309 337 331 59 60 58 57 43 10 41 45 8 356 345 341 332 325 275 245 168 131 132 131 125 120 114 91 49
349 158 291 278 277 267 63 0 348 132 274 231 214 264 271 277 312 305 353 60 41 47 33 20 47 28 5 352 345 341 337 336 337 275 174 141 137 138 131 119 104 91 85 342
15 342 347 340 7 8 15 332 328 315 195 234 243 272 330 298 287 9 77 46 37 13 41 27 16 357 336 338 334 333 334 346 339 260 168 154 153 146 145 136 344 4 24 325
107 204 165 207 243 299 320 310 305 299 232 277 246 288 301 294 319 58 44 26 5 47 38 15 350 320 321 333 326 330 344 346 335 222 188 175 173 163 128 117 58 329 301 281
150 217 226 257 278 291 290 290 286 292 287 288 292 289 298 335 62 46 18 1 3 45 12 341 325 320 324 326 323 353 348 347 331 230 178 126 110 90 43 339 39 303 279 288
296 259 215 273 278 276 293 281 286 286 277 274 297 302 301 0 21 10 2 3 8 353 335 327 315 317 317 314 328 330 334 326 332 80 97 80 65 47 52 306 279 276 289 298
243 190 163 278 330 11 310 273 266 266 308 291 281 304 13 353 347 348 342 358 332 321 313 313 311 309 309 328 333 328 321 316 305 50 350 343 351 332 243 242 263 296 303 312
239 129 131 275 28 228 240 315 303 293 278 327 22 0 353 352 341 324 334 335 323 313 300 298 307 305 334 332 327 324 320 330 30 328 310 256 245 247 234 319 308 312 317 317
161 125 215 269 212 276 288 264 302 318 309 358 355 338 330 327 312 314 289 303 283 285 280 294 312 329 336 331 331 320 309 291 283 287 300 93 82 26 350 334 325 322 322 320
78 89 129 283 271 292 228 316 322 312 281 342 358 7 318 305 306 312 301 293 290 278 290 311 335 336 344 338 319 313 329 326 87 59 40 20 8 354 346 340 332 327 324 322
350 349 206 236 263 266 257 257 58 44 291 288 220 277 279 279 255 296 288 286 300 327 26 0 340 335 338 17 10 23 67 63 49 28 10 355 347 350 346 335 335 329 327 322
187 184 223 223 237 269 226 344 51 255 268 288 270 262 300 296 298 285 296 290 24 39 10 357 338 342 31 6 341 90 67 38 8 360 356 355 344 340 336 334 333 331 329 351
271 200 211 195 223 246 316 301 304 305 299 289 258 329 355 317 303 298 312 33 55 20 356 348 2 32 4 58 64 26 32 1 355 348 349 342 336 335 341 341 334 333 357 4
243 290 264 317 266 285 308 301 294 291 269 334 30 329 325 275 287 340 18 39 12 350 334 332 351 14 349 141 97 90 16 348 348 345 342 338 341 340 342 342 345 8 4 352
192 229 260 262 281 288 278 271 294 321 29 2 333 286 270 295 42 14 3 12 345 325 315 310 331 307 175 120 67 3 348 345 341 336 336 334 339 341 340 350 359 351 343 343
199 249 244 266 272 275 281 330 317 341 343 261 261 285 62 85 37 353 358 332 313 306 349 344 339 92 104 88 46 329 318 330 336 334 327 332 336 346 343 344 339 345 341 340
Height
792 816 826 813 808 805 812 815 817 804 793 800 800 798 786 776 779 782 786 787 786 786 784 783 786 790 793 796 798 801 804 805 805 805 806 806 805 805 804 804 803 802 803 805
811 823 806 801 802 806 812 817 820 803 797 799 798 791 778 775 778 778 783 785 786 787 787 789 791 794 796 798 799 800 801 802 802 802 801 801 801 800 799 799 799 798 799 800
819 811 799 804 810 815 818 821 822 821 806 793 793 798 784 779 777 777 779 781 784 786 787 787 790 792 794 795 796 797 797 797 798 797 797 796 796 795 795 794 794 794 794 794
810 800 808 812 814 816 827 809 810 814 822 829 797 834 793 788 786 782 782 787 788 788 786 788 788 790 791 790 791 793 793 793 792 792 792 791 790 788 788 788 789 789 789 790
819 814 815 818 818 812 820 805 810 808 817 814 806 821 802 787 792 790 789 788 788 788 789 787 787 787 788 788 789 789 789 789 788 788 787 786 785 783 782 784 785 785 784 785
810 800 810 815 811 809 806 811 805 800 812 846 820 821 819 794 786 786 790 790 789 787 787 787 786 786 787 787 788 787 787 786 784 783 780 778 775 774 775 775 777 778 780 781
817 815 811 809 819 811 818 829 861 858 861 858 814 823 812 789 781 788 793 790 785 785 787 784 783 786 787 787 787 787 786 784 782 779 776 772 768 766 765 766 766 769 773 776
846 855 823 815 823 830 829 827 872 871 881 866 823 829 808 786 786 785 783 787 788 784 784 785 785 786 785 785 784 784 783 782 778 774 770 767 765 761 757 756 759 761 764 769
858 842 821 817 816 824 833 848 828 852 883 879 848 817 793 787 788 787 790 789 787 785 784 785 785 785 784 783 783 783 781 779 774 769 765 761 758 757 756 757 761 764 768 769
844 858 831 825 819 818 826 825 858 870 877 872 842 831 826 804 798 793 790 788 786 786 786 786 788 786 783 782 781 779 778 774 768 763 761 759 757 759 761 763 764 766 768 769
845 856 854 836 829 837 838 847 841 841 859 867 867 844 799 799 798 796 785 786 786 789 788 787 786 787 787 785 783 780 775 770 766 762 759 758 758 760 761 764 765 765 768 770
850 858 877 847 827 824 827 837 836 865 864 863 867 834 795 798 791 784 789 793 792 792 789 789 790 788 785 782 779 776 772 767 763 759 757 757 757 758 760 763 765 765 768 771
850 872 885 861 842 836 842 836 840 849 860 851 860 833 797 793 789 790 794 795 792 790 791 791 789 786 783 780 778 774 770 766 762 758 756 756 756 758 760 762 764 765 766 768
848 859 871 881 864 855 858 845 838 846 877 843 841 817 805 796 791 793 795 793 791 790 790 789 788 786 780 777 774 770 768 765 760 756 754 753 755 756 758 761 763 764 765 765
849 868 860 855 852 849 848 842 833 838 837 842 818 817 801 797 795 796 795 791 789 792 791 789 785 780 777 775 773 769 766 762 758 755 755 755 756 756 757 758 760 762 762 761
849 867 857 860 849 849 852 838 830 831 827 820 812 808 793 793 796 794 795 791 793 791 788 786 782 778 775 772 769 766 764 762 761 757 756 755 756 757 756 759 759 758 758 757
856 869 873 852 854 859 866 830 826 822 816 814 822 812 806 803 801 799 797 795 794 791 787 782 779 776 771 769 767 764 761 758 755 754 754 752 752 754 755 754 756 755 754 753
861 873 879 861 875 854 830 813 811 815 810 808 808 807 805 805 799 797 789 793 790 786 782 778 774 772 770 767 765 762 759 756 754 754 752 751 751 753 754 753 753 752 750 749
840 869 864 857 858 840 828 813 812 815 810 808 806 800 800 802 798 793 786 788 785 779 777 773 771 770 766 764 762 759 757 755 752 753 752 752 751 751 751 751 751 750 748 745
851 859 866 874 868 844 822 807 804 801 809 806 806 807 807 803 802 789 785 781 776 774 771 770 767 765 762 761 760 758 755 752 755 755 754 754 752 752 751 750 749 747 745 742
870 878 873 889 857 839 811 802 801 825 812 804 804 802 800 799 795 785 779 771 768 769 769 768 767 763 760 759 759 758 757 758 757 756 755 754 753 752 749 748 747 745 742 739
860 868 863 862 844 842 800 802 821 811 802 797 796 794 793 787 784 780 774 769 768 768 766 765 763 761 760 760 758 759 759 760 759 757 755 754 752 750 748 746 744 742 739 736
849 845 851 843 829 802 799 804 799 798 794 793 791 787 786 788 782 776 774 772 772 771 767 764 762 761 762 760 759 759 760 759 758 756 754 753 751 749 747 744 742 738 736 734
832 828 832 830 804 795 799 794 793 788 788 787 787 789 788 782 779 776 776 774 774 773 768 764 762 761 761 759 759 759 758 757 756 755 754 752 750 747 745 742 740 737 735 732
830 828 821 814 804 799 794 792 789 787 787 785 784 781 777 778 778 778 772 771 773 773 768 765 761 760 759 759 760 760 758 757 756 754 753 750 748 746 743 741 739 737 735 732
818 813 820 807 796 798 788 788 788 786 787 785 781 774 775 776 778 776 770 770 771 769 767 764 760 760 760 759 760 759 757 756 754 753 750 749 747 744 742 739 737 736 733 730